(167451) = 2003 XA10

Discovered at Socorro on 2003-12-04 by LINEAR.

Orbit

Orbit type: Main Belt

Note: WebGL enabled browser required.

epoch2022-01-21.0
epoch JD2459600.5
perihelion date2021-04-17.55451
perihelion JD2459322.05451
argument of perihelion (°)113.84511
ascending node (°)323.42873
inclination (°)13.20727
eccentricity0.2894921
perihelion distance (AU)1.8926238
Tisserand w.r.t. Jupiter3.3
ΔV w.r.t. Earth (km/sec)9.5
semimajor axis (AU)2.6637620
mean anomaly (°)63.12493
mean daily motion (°/day)0.22670480
aphelion distance (AU)3.435
period (years)4.35
P-vector [x]0.20587729
P-vector [y]0.79399292
P-vector [z]0.57200506
Q-vector [x]-0.96906302
Q-vector [y]0.24673299
Q-vector [z]0.00630033
absolute magnitude16.5
phase slope0.15
uncertainty0
referenceMPO 694649
observations used361
oppositions12
arc length (days)8654
first opposition used1998
last opposition used2022
residual rms (arc-secs)0.76
perturbers coarse indicatorM-v
perturbers precise indicator003Ek
first observation date used1998-07-26.0
last observation date used2022-04-05.0
computer namePan
JD of orbit computation2456847.760180
perihelion JD uncertainty (days)6.1152E-05
argument of perihelion uncertainty (°)2.2790E-05
ascending node uncertainty (°)1.8386E-05
inclination uncertainty (°)5.9545E-06
eccentricity uncertainty 3.7753E-08
perihelion distance uncertainty (AU)9.7505E-08
Minimum Orbit Intersection Distances (in AU)
for orbit epoch: 2459200.5, reference: E2021-B55
Mercury1.5891
Venus1.19606
Earth0.95062
Mars0.38608
Jupiter1.98335
Saturn6.77127
Uranus15.4933
Neptune26.9957

Observations

375 total observations over interval: 1998 07 26.40221 – 2022 04 05.300593
These data are available for download (format description).

Date (UT) J2000 RA J2000 Dec Magn Location Ref
1998 07 26.40221 22 33 37.87 -08 45 58.1 21.6 V 691 – Steward Observatory, Kitt Peak-Spacewatch MPS 96389
1998 07 26.42343 22 33 37.11 -08 45 57.5 21.4 V 691 – Steward Observatory, Kitt Peak-Spacewatch MPS 96389
1998 07 26.44470 22 33 36.27 -08 45 55.8 21.4 V 691 – Steward Observatory, Kitt Peak-Spacewatch MPS 96389
2000 03 11.22156 10 29 22.20 +01 24 52.8 19.3 R 699 – Lowell Observatory-LONEOS MPS 95858
2000 03 11.24517 10 29 20.73 +01 24 55.5   699 – Lowell Observatory-LONEOS MPS 95858
2000 03 11.26873 10 29 19.31 +01 24 56.9   699 – Lowell Observatory-LONEOS MPS 95858
2000 03 11.29238 10 29 17.89 +01 24 58.0   699 – Lowell Observatory-LONEOS MPS 95858
2000 05 05.212730 10 15 18.661 +01 05 12.74 21.04 V 645 – Apache Point-Sloan Digital Sky Survey MPS 95858
2000 05 05.216202 10 15 18.740 +01 05 12.19 21.68   645 – Apache Point-Sloan Digital Sky Survey MPS 95858
2003 11 04.43221 06 39 41.18 +43 38 08.9 19.2   704 – Lincoln Laboratory ETS, New Mexico MPS 93472
2003 11 04.44444 06 39 41.80 +43 38 13.0 19.5   704 – Lincoln Laboratory ETS, New Mexico MPS 93472
2003 11 04.45667 06 39 42.20 +43 38 15.7 19.4   704 – Lincoln Laboratory ETS, New Mexico MPS 93472
2003 11 04.46916 06 39 42.78 +43 38 19.8 19.1   704 – Lincoln Laboratory ETS, New Mexico MPS 93472
2003 11 21.35673 06 45 52.60 +44 49 13.8 18.8   704 – Lincoln Laboratory ETS, New Mexico MPS 93472
2003 11 21.36803 06 45 52.54 +44 49 17.4 19.5   704 – Lincoln Laboratory ETS, New Mexico MPS 93472
2003 11 21.38326 06 45 52.30 +44 49 20.2 19.9   704 – Lincoln Laboratory ETS, New Mexico MPS 93472
2003 11 21.40547 06 45 52.21 +44 49 25.5 19.3   704 – Lincoln Laboratory ETS, New Mexico MPS 93472
2003 12 04.33398 06 40 30.23 +45 14 56.7 18.8   704 – Lincoln Laboratory ETS, New Mexico MPS 92916
2003 12 04.34502 06 40 29.68 +45 14 57.5 19.2   704 – Lincoln Laboratory ETS, New Mexico MPS 92917
2003 12 04.35618 06 40 29.22 +45 14 57.7 19.5   704 – Lincoln Laboratory ETS, New Mexico MPS 92917
2003 12 04.36752 06 40 28.53 +45 14 57.5 19.6   704 – Lincoln Laboratory ETS, New Mexico MPS 92917
2003 12 04.37877 06 40 28.00 +45 14 57.2 19.1   704 – Lincoln Laboratory ETS, New Mexico MPS 92917
2003 12 05.32057 06 39 45.60 +45 15 12.4 18.5   704 – Lincoln Laboratory ETS, New Mexico MPS 92917
2003 12 05.33324 06 39 44.96 +45 15 10.8 19.0   704 – Lincoln Laboratory ETS, New Mexico MPS 92917
2003 12 05.34576 06 39 44.34 +45 15 11.8 19.0   704 – Lincoln Laboratory ETS, New Mexico MPS 92917
2003 12 05.35828 06 39 43.69 +45 15 12.9 18.6   704 – Lincoln Laboratory ETS, New Mexico MPS 92917
2003 12 05.37080 06 39 43.03 +45 15 13.0 19.0   704 – Lincoln Laboratory ETS, New Mexico MPS 92917
2003 12 15.26645 06 30 11.06 +45 00 17.1 18.8   704 – Lincoln Laboratory ETS, New Mexico MPS 93806
2003 12 15.27941 06 30 10.17 +45 00 15.1 19.1   704 – Lincoln Laboratory ETS, New Mexico MPS 93806
2003 12 15.29236 06 30 09.21 +45 00 14.0 19.6   704 – Lincoln Laboratory ETS, New Mexico MPS 93806
2003 12 15.30550 06 30 08.26 +45 00 09.8 19.0   704 – Lincoln Laboratory ETS, New Mexico MPS 93806
2003 12 15.31832 06 30 07.36 +45 00 07.9 19.0   704 – Lincoln Laboratory ETS, New Mexico MPS 93806
2003 12 29.27678 06 13 26.13 +43 37 05.5 18.6   704 – Lincoln Laboratory ETS, New Mexico MPS 95858
2003 12 29.29049 06 13 25.12 +43 36 58.4 19.2   704 – Lincoln Laboratory ETS, New Mexico MPS 95858
2003 12 29.30406 06 13 24.09 +43 36 51.7 18.6   704 – Lincoln Laboratory ETS, New Mexico MPS 95858
2003 12 29.31785 06 13 23.06 +43 36 44.4 18.6   704 – Lincoln Laboratory ETS, New Mexico MPS 95858
2003 12 29.33145 06 13 22.05 +43 36 36.5 18.8   704 – Lincoln Laboratory ETS, New Mexico MPS 95858
2003 12 30.24999 06 12 17.80 +43 28 36.2 18.7   704 – Lincoln Laboratory ETS, New Mexico MPS 95858
2003 12 30.26194 06 12 16.99 +43 28 30.2 18.9   704 – Lincoln Laboratory ETS, New Mexico MPS 95858
2003 12 30.27413 06 12 16.08 +43 28 23.5 18.9   704 – Lincoln Laboratory ETS, New Mexico MPS 95858
2003 12 30.28621 06 12 15.17 +43 28 17.3 18.9   704 – Lincoln Laboratory ETS, New Mexico MPS 95858
2003 12 30.29828 06 12 14.28 +43 28 10.5 18.8   704 – Lincoln Laboratory ETS, New Mexico MPS 95858
2004 01 19.21425 05 55 08.67 +39 40 33.1 18.7   704 – Lincoln Laboratory ETS, New Mexico MPS 97033
2004 01 19.22711 05 55 08.30 +39 40 22.5 19.4   704 – Lincoln Laboratory ETS, New Mexico MPS 97033
2004 01 19.23986 05 55 07.92 +39 40 12.6 19.4   704 – Lincoln Laboratory ETS, New Mexico MPS 97033
2004 01 19.25258 05 55 07.49 +39 40 02.7 19.2   704 – Lincoln Laboratory ETS, New Mexico MPS 97033
2007 09 12.28863 00 22 35.11 +17 57 19.8 18.7 V 703 – Catalina Sky Survey MPS 215112
2007 09 12.29630 00 22 34.75 +17 57 20.9 19.1 V 703 – Catalina Sky Survey MPS 215112
2007 09 12.30383 00 22 34.24 +17 57 22.8 18.8 V 703 – Catalina Sky Survey MPS 215112
2007 09 12.31135 00 22 33.85 +17 57 24.5 18.7 V 703 – Catalina Sky Survey MPS 215112
2007 09 12.42852 00 22 27.43 +17 57 55.6   291 – LPL/Spacewatch II MPS 215112
2007 09 12.43282 00 22 27.18 +17 57 56.6   291 – LPL/Spacewatch II MPS 215112
2007 09 12.43707 00 22 26.96 +17 57 57.8   291 – LPL/Spacewatch II MPS 215112
2007 09 18.40113 00 16 48.72 +18 20 05.2 19.3 V 703 – Catalina Sky Survey MPS 216183
2007 09 18.40810 00 16 48.25 +18 20 06.5 19.0 V 703 – Catalina Sky Survey MPS 216183
2007 09 18.41507 00 16 47.89 +18 20 07.1 19.4 V 703 – Catalina Sky Survey MPS 216183
2007 09 18.42201 00 16 47.46 +18 20 08.7 18.8 V 703 – Catalina Sky Survey MPS 216183
2007 10 08.21706 23 55 23.12 +18 33 33.7 19.3 V 703 – Catalina Sky Survey MPS 218624
2007 10 08.22375 23 55 22.65 +18 33 33.6 19.7 V 703 – Catalina Sky Survey MPS 218624
2007 10 08.23045 23 55 22.29 +18 33 32.4 19.4 V 703 – Catalina Sky Survey MPS 218624
2007 10 08.23719 23 55 21.72 +18 33 31.8 19.1 V 703 – Catalina Sky Survey MPS 218624
2007 10 09.27737 23 54 15.57 +18 31 52.5 19.2 r 699 – Lowell Observatory-LONEOS MPS 218624
2007 10 09.29929 23 54 14.20 +18 31 50.1   699 – Lowell Observatory-LONEOS MPS 218624
2007 10 09.32123 23 54 12.78 +18 31 47.7   699 – Lowell Observatory-LONEOS MPS 218624
2007 10 09.34318 23 54 11.30 +18 31 45.2   699 – Lowell Observatory-LONEOS MPS 218624
2007 10 14.24952 23 49 13.98 +18 21 26.4 19.7 V 703 – Catalina Sky Survey MPS 220470
2007 10 14.25927 23 49 13.33 +18 21 25.3 20.1 V 703 – Catalina Sky Survey MPS 220470
2007 10 14.26902 23 49 12.79 +18 21 23.6 19.2 V 703 – Catalina Sky Survey MPS 220470
2007 10 14.27877 23 49 12.14 +18 21 22.1 20.0 V 703 – Catalina Sky Survey MPS 220470
2007 10 20.17264 23 43 56.24 +18 04 45.6 19.5 V 703 – Catalina Sky Survey MPS 222497
2007 10 20.17692 23 43 55.95 +18 04 44.7 19.4 V 703 – Catalina Sky Survey MPS 222497
2007 10 20.18120 23 43 55.74 +18 04 44.1 19.6 V 703 – Catalina Sky Survey MPS 222497
2007 10 20.18549 23 43 55.56 +18 04 44.2 19.7 V 703 – Catalina Sky Survey MPS 222497
2008 01 12.07609 00 31 26.27 +18 52 06.7 19.6   704 – Lincoln Laboratory ETS, New Mexico MPS 235000
2008 01 12.08869 00 31 27.48 +18 52 11.2 20.1   704 – Lincoln Laboratory ETS, New Mexico MPS 235000
2008 01 12.10129 00 31 28.78 +18 52 15.6 20.2   704 – Lincoln Laboratory ETS, New Mexico MPS 235000
2008 01 12.11431 00 31 30.03 +18 52 20.9 20.4   704 – Lincoln Laboratory ETS, New Mexico MPS 235000
2008 01 12.12692 00 31 31.26 +18 52 25.3 20.1   704 – Lincoln Laboratory ETS, New Mexico MPS 235000
2008 03 01.10398 02 12 22.28 +25 04 03.1 20.9 V G96 – Mt. Lemmon Survey MPS 241883
2008 03 01.10786 02 12 22.86 +25 04 04.5 20.7 V G96 – Mt. Lemmon Survey MPS 241883
2008 03 01.11171 02 12 23.40 +25 04 06.6 21.0 V G96 – Mt. Lemmon Survey MPS 241883
2008 03 01.11580 02 12 23.97 +25 04 08.3 20.6 V G96 – Mt. Lemmon Survey MPS 241883
2011 08 03.48688 22 02 52.137 -12 45 02.47 20.8 g F51 – Pan-STARRS 1, Haleakala MPS 388561
2011 08 03.49766 22 02 51.544 -12 45 02.25 21.0 g F51 – Pan-STARRS 1, Haleakala MPS 388561
2011 09 26.20250 21 14 38.14 -12 46 57.0 20.2 V G96 – Mt. Lemmon Survey MPS 393903
2011 09 26.20775 21 14 37.96 -12 46 56.0 20.5 V G96 – Mt. Lemmon Survey MPS 393903
2011 09 26.21296 21 14 37.86 -12 46 55.7 20.3 V G96 – Mt. Lemmon Survey MPS 393903
2011 09 26.21821 21 14 37.68 -12 46 55.5 20.5 V G96 – Mt. Lemmon Survey MPS 393903
